This is the latest recevied weather packets stored in our database for station/object WO5CID. If no packets are shown the sender has not sent any weather packets the latest 1 day(s).
| Time | Temp. | Humidity | Pressure | Rain* | Wind** | Luminosity | Snow |
|---|---|---|---|---|---|---|---|
| 1836274832 | 23.33° C | 98% | 1016.9 hPa | 0 mm | 0 m/s | 0 W/m² | - |
| 1836274529 | 23.89° C | 98% | 1016.8 hPa | 0 mm | 0 m/s | 0 W/m² | - |
| 1836274383 | 23.33° C | 98% | 1017 hPa | 0 mm | 0 m/s | 0 W/m² | - |
| 1836274229 | 23.89° C | 98% | 1016.7 hPa | 0 mm | 0 m/s | 0 W/m² | - |
| 1836273922 | 23.89° C | 98% | 1016.8 hPa | 0 mm | 0 m/s | 0 W/m² | - |
| 1778046529 | 15° C | 90% | 1016.4 hPa | 0 mm | 0 m/s | 0 W/m² | - |
| 1778046226 | 15° C | 89% | 1016.5 hPa | 0 mm | 0 m/s | 0 W/m² | - |
| 1778045922 | 15° C | 89% | 1016.4 hPa | 0 mm | 0 m/s | 0 W/m² | - |
| 1778045621 | 15° C | 89% | 1016.7 hPa | 0 mm | 0 m/s | 0 W/m² | - |
| 1778045319 | 15° C | 89% | 1016.9 hPa | 0 mm | 0 m/s | 0 W/m² | - |
| 1778045017 | 15° C | 88% | 1016.7 hPa | 0 mm | 0 m/s | 0 W/m² | - |
| 1778044715 | 15° C | 88% | 1016.6 hPa | 0 mm | 0 m/s | 0 W/m² | - |
| 1778044411 | 15° C | 88% | 1016.8 hPa | 0 mm | 0 m/s | 0 W/m² | - |
| 1778044108 | 15.56° C | 87% | 1016.6 hPa | 0 mm | 0 m/s | 0 W/m² | - |
| 1778043805 | 15.56° C | 88% | 1016.6 hPa | 0 mm | 0 m/s | 0 W/m² | - |
| 1778043502 | 15.56° C | 87% | 1016.8 hPa | 0 mm | 0 m/s | 0 W/m² | - |
| 1778043199 | 15.56° C | 87% | 1016.7 hPa | 0 mm | 0 m/s | 0 W/m² | - |
| 1778042896 | 15.56° C | 86% | 1017 hPa | 0 mm | 0 m/s | 0 W/m² | - |
| 1778042594 | 15.56° C | 86% | 1016.9 hPa | 0 mm | 0 m/s | 0 W/m² | - |
| 1778042290 | 15.56° C | 85% | 1016.9 hPa | 0 mm | 0 m/s | 0 W/m² | - |
| 1778041988 | 16.11° C | 85% | 1017.1 hPa | 0 mm | 0 m/s | 0 W/m² | - |
| 1778041686 | 16.11° C | 84% | 1016.7 hPa | 0 mm | 0 m/s | 0 W/m² | - |
| 1778041385 | 16.11° C | 84% | 1016.9 hPa | 0 mm | 0 m/s | 0 W/m² | - |
| 1778041083 | 16.11° C | 84% | 1017.1 hPa | 0 mm | 0 m/s | 0 W/m² | - |
| 1778040779 | 16.11° C | 82% | 1017 hPa | 0 mm | 0 m/s | 0 W/m² | - |
* Rain latest hour (hover to see other rain measurements)
** Current wind speed in m/s (hover to see current wind gust speed)